When you browse on this site, cookies collect data to enhance your experience and personalize the content and advertising you see.
Visit our Privacy Policy to learn more. By continuing to use the site, you agree to this use of cookies and data.
  • In Netherlands
  • List of Countries
  • For 7 days
  • Water Temperature
  • Satellite Maps
  • Weather Map
  • Weather Widgets
  • user-avatar
    Login

    Hourly Weather Mozdok

    Today, 20 February, Wednesday

    Time Temperature Precipitation Wind Pressure Humidity
    00:00 -1°C° 0 mm 0 mps 758 mmHg 54%
    01:00 0°C° 0 mm 1 mps 758 mmHg 55%
    02:00 0°C° 0 mm 1 mps 757 mmHg 55%
    03:00 -3°C° 0 mm 2 mps 757 mmHg 51%
    04:00 -3°C° 0 mm 2 mps 757 mmHg 51%
    05:00 -3°C° 0 mm 2 mps 756 mmHg 52%
    06:00 -3°C° 0 mm 2 mps 756 mmHg 52%
    07:00 -2°C° 0 mm 2 mps 756 mmHg 49%
    08:00 -1°C° 0 mm 3 mps 755 mmHg 46%
    09:00 0°C° 0 mm 3 mps 755 mmHg 43%
    10:00 +1°C° 0 mm 3 mps 755 mmHg 39%
    11:00 +1°C° 0 mm 4 mps 754 mmHg 36%
    12:00 +4°C° 0 mm 4 mps 754 mmHg 33%
    13:00 +4°C° 0 mm 4 mps 753 mmHg 32%
    14:00 +5°C° 0 mm 4 mps 753 mmHg 31%
    15:00 +5°C° 0 mm 4 mps 752 mmHg 30%
    16:00 +4°C° 0 mm 4 mps 753 mmHg 35%
    17:00 +3°C° 0 mm 3 mps 753 mmHg 40%
    18:00 +2°C° 0 mm 2 mps 753 mmHg 45%
    19:00 +2°C° 0 mm 2 mps 753 mmHg 49%
    20:00 +2°C° 0 mm 1 mps 753 mmHg 53%
    21:00 +1°C° 0 mm 0 mps 753 mmHg 57%
    22:00 +2°C° 0 mm 1 mps 753 mmHg 59%
    23:00 +1°C° 0 mm 1 mps 752 mmHg 60%

    Tomorrow, 21 February, Thursday

    Time Temperature Precipitation Wind Pressure Humidity
    00:00 +1°C° 0 mm 1 mps 752 mmHg 62%
    01:00 +1°C° 0 mm 1 mps 752 mmHg 62%
    02:00 +1°C° 0 mm 1 mps 752 mmHg 63%
    03:00 +1°C° 0 mm 1 mps 752 mmHg 63%
    04:00 +1°C° 0 mm 1 mps 752 mmHg 62%
    05:00 +1°C° 0 mm 1 mps 751 mmHg 61%
    06:00 -1°C° 0 mm 2 mps 751 mmHg 59%
    07:00 +1°C° 0 mm 2 mps 751 mmHg 54%
    08:00 +3°C° 0 mm 1 mps 751 mmHg 50%
    09:00 +4°C° 0 mm 1 mps 751 mmHg 45%
    10:00 +6°C° 0 mm 1 mps 750 mmHg 40%
    11:00 +7°C° 0 mm 1 mps 750 mmHg 35%
    12:00 +9°C° 0 mm 1 mps 750 mmHg 30%
    13:00 +10°C° 0 mm 1 mps 749 mmHg 28%
    14:00 +10°C° 0 mm 1 mps 749 mmHg 27%
    15:00 +10°C° 0 mm 2 mps 749 mmHg 25%
    16:00 +9°C° 0 mm 2 mps 749 mmHg 30%
    17:00 +9°C° 0 mm 1 mps 749 mmHg 34%
    18:00 +7°C° 0 mm 1 mps 749 mmHg 39%
    19:00 +7°C° 0 mm 1 mps 749 mmHg 40%
    20:00 +6°C° 0 mm 1 mps 750 mmHg 42%
    21:00 +5°C° 0 mm 0 mps 750 mmHg 43%
    22:00 +5°C° 0 mm 1 mps 750 mmHg 43%
    23:00 +5°C° 0 mm 1 mps 750 mmHg 42%

    Day after tomorrow, 22 February, Friday

    Time Temperature Precipitation Wind Pressure Humidity
    00:00 +5°C° 0 mm 1 mps 750 mmHg 42%
    01:00 +5°C° 0 mm 1 mps 750 mmHg 44%
    02:00 +4°C° 0 mm 1 mps 750 mmHg 47%
    03:00 +4°C° 0 mm 1 mps 750 mmHg 49%
    04:00 +4°C° 0 mm 1 mps 750 mmHg 56%
    05:00 +4°C° 0 mm 1 mps 750 mmHg 63%
    06:00 +4°C° 0 mm 1 mps 750 mmHg 71%
    07:00 +4°C° 0 mm 1 mps 751 mmHg 72%
    08:00 +5°C° 0 mm 1 mps 751 mmHg 74%
    09:00 +6°C° 0 mm 1 mps 752 mmHg 75%
    10:00 +5°C° 0 mm 2 mps 751 mmHg 70%
    11:00 +5°C° 0 mm 2 mps 751 mmHg 65%
    12:00 +5°C° 0 mm 3 mps 751 mmHg 59%
    13:00 +6°C° 0 mm 2 mps 751 mmHg 56%
    14:00 +6°C° 0 mm 2 mps 751 mmHg 53%
    15:00 +7°C° 0 mm 2 mps 751 mmHg 50%
    16:00 +6°C° 0 mm 2 mps 751 mmHg 52%
    17:00 +7°C° 0 mm 1 mps 751 mmHg 54%
    18:00 +7°C° 0 mm 1 mps 752 mmHg 56%
    19:00 +5°C° 0 mm 2 mps 752 mmHg 61%
    20:00 +5°C° 0 mm 2 mps 752 mmHg 65%
    21:00 +3°C° 0 mm 3 mps 752 mmHg 69%
    22:00 +3°C° 0 mm 3 mps 752 mmHg 74%
    23:00 +2°C° 0 mm 3 mps 752 mmHg 78%

    23 February, Saturday

    Time Temperature Precipitation Wind Pressure Humidity
    00:00 +2°C° 0 mm 3 mps 751 mmHg 83%
    01:00 +1°C° 0 mm 3 mps 751 mmHg 86%
    02:00 +1°C° 0 mm 3 mps 751 mmHg 89%
    03:00 0°C° 0 mm 3 mps 751 mmHg 92%
    04:00 +1°C° 0 mm 3 mps 751 mmHg 92%
    05:00 +2°C° 0 mm 2 mps 751 mmHg 92%
    06:00 +2°C° 0 mm 2 mps 751 mmHg 91%
    07:00 +3°C° 0 mm 1 mps 751 mmHg 89%
    08:00 +3°C° 0 mm 1 mps 751 mmHg 87%
    09:00 +4°C° 0 mm 1 mps 751 mmHg 84%
    10:00 +5°C° 0 mm 1 mps 751 mmHg 77%
    11:00 +5°C° 0 mm 2 mps 751 mmHg 70%
    12:00 +7°C° 0 mm 2 mps 750 mmHg 63%
    13:00 +8°C° 0 mm 3 mps 750 mmHg 58%
    14:00 +9°C° 0 mm 3 mps 750 mmHg 53%
    15:00 +11°C° 0 mm 3 mps 750 mmHg 48%
    16:00 +10°C° 0 mm 3 mps 750 mmHg 53%
    17:00 +9°C° 0 mm 3 mps 751 mmHg 58%
    18:00 +8°C° 0 mm 3 mps 751 mmHg 63%
    19:00 +7°C° 0 mm 2 mps 752 mmHg 68%
    20:00 +6°C° 0 mm 2 mps 752 mmHg 74%
    21:00 +6°C° 0 mm 2 mps 752 mmHg 79%
    22:00 +5°C° 0 mm 2 mps 752 mmHg 82%
    23:00 +5°C° 0 mm 2 mps 753 mmHg 86%

    24 February, Sunday

    Time Temperature Precipitation Wind Pressure Humidity
    00:00 +5°C° 0 mm 1 mps 753 mmHg 89%
    01:00 +5°C° 0 mm 1 mps 753 mmHg 91%
    02:00 +4°C° 0 mm 1 mps 753 mmHg 92%
    03:00 +3°C° 0 mm 0 mps 753 mmHg 94%
    04:00 +4°C° 0 mm 1 mps 753 mmHg 94%
    05:00 +4°C° 0 mm 1 mps 753 mmHg 94%
    06:00 +4°C° 0 mm 1 mps 753 mmHg 94%
    07:00 +4°C° 0 mm 1 mps 753 mmHg 91%
    08:00 +5°C° 0 mm 1 mps 754 mmHg 89%
    09:00 +5°C° 0 mm 1 mps 754 mmHg 86%
    10:00 +6°C° 0 mm 1 mps 753 mmHg 80%
    11:00 +7°C° 0 mm 1 mps 753 mmHg 75%
    12:00 +8°C° 0 mm 1 mps 753 mmHg 69%
    13:00 +8°C° 0 mm 2 mps 753 mmHg 65%
    14:00 +9°C° 0 mm 2 mps 753 mmHg 61%
    15:00 +10°C° 0 mm 2 mps 753 mmHg 57%
    16:00 +9°C° 0 mm 2 mps 753 mmHg 61%
    17:00 +8°C° 0 mm 2 mps 753 mmHg 64%
    18:00 +8°C° 0 mm 1 mps 754 mmHg 68%
    19:00 +7°C° 0 mm 2 mps 754 mmHg 71%
    20:00 +5°C° 0 mm 3 mps 754 mmHg 75%
    21:00 +5°C° 0 mm 3 mps 755 mmHg 78%
    22:00 +4°C° 0 mm 3 mps 754 mmHg 80%
    23:00 +5°C° 0 mm 2 mps 754 mmHg 82%

    25 February, Monday

    Time Temperature Precipitation Wind Pressure Humidity
    00:00 +4°C° 0 mm 2 mps 754 mmHg 84%
    01:00 +4°C° 0 mm 2 mps 754 mmHg 83%
    02:00 +3°C° 0 mm 3 mps 754 mmHg 83%
    03:00 +3°C° 0 mm 3 mps 754 mmHg 82%
    04:00 +2°C° 0.1 mm 3 mps 754 mmHg 82%
    05:00 +2°C° 0.1 mm 3 mps 754 mmHg 83%
    06:00 +1°C° 0.1 mm 3 mps 754 mmHg 83%
    07:00 +1°C° 0.1 mm 3 mps 754 mmHg 82%
    08:00 +1°C° 0.1 mm 3 mps 754 mmHg 82%
    09:00 +1°C° 0.1 mm 3 mps 754 mmHg 81%
    10:00 +2°C° 0 mm 3 mps 753 mmHg 78%
    11:00 +2°C° 0 mm 3 mps 753 mmHg 74%
    12:00 +3°C° 0 mm 3 mps 752 mmHg 71%
    13:00 +3°C° 0 mm 3 mps 751 mmHg 69%
    14:00 +4°C° 0 mm 4 mps 751 mmHg 67%
    15:00 +4°C° 0 mm 4 mps 750 mmHg 65%
    16:00 +4°C° 0 mm 4 mps 750 mmHg 66%
    17:00 +3°C° 0 mm 4 mps 750 mmHg 67%
    18:00 +3°C° 0 mm 4 mps 750 mmHg 68%
    19:00 +3°C° 0 mm 4 mps 750 mmHg 68%
    20:00 +3°C° 0 mm 4 mps 750 mmHg 68%
    21:00 +1°C° 0 mm 4 mps 749 mmHg 68%
    22:00 +1°C° 0 mm 4 mps 749 mmHg 67%
    23:00 +1°C° 0 mm 4 mps 749 mmHg 67%
    Show more